Temperature
14 14 15 15 16 16 18 21 23 22 23 22 22 23 23 22 21 18 17 17 17 17 17 17 17 17 17 17 17 17 17 17 17 17 17 17 17 17 17 16 16 16 16 16 16 16 16 16 16
14 14 15 16 16 16 19 20 22 22 21 21 21 21 22 21 20 18 17 17 17 17 17 17 17 17 17 17 17 17 17 17 17 17 17 17 17 17 16 16 16 16 16 16 16 16 16 15 15
13 14 15 16 16 18 20 21 21 21 20 20 21 21 21 19 18 17 16 16 17 16 16 17 16 16 16 16 16 16 17 16 16 16 16 16 16 16 16 16 16 16 16 16 16 16 16 15 15
13 14 16 16 17 19 20 20 20 20 20 20 20 20 19 18 17 16 16 16 16 16 16 16 16 16 16 16 16 16 16 16 16 16 16 16 16 16 16 16 16 16 16 16 16 16 16 16 15
13 15 15 15 17 19 20 20 20 20 20 19 19 19 18 17 16 16 16 16 16 16 16 16 16 16 16 16 16 16 16 16 16 16 16 16 16 16 16 16 16 16 16 16 16 16 15 16 15
14 15 15 15 17 19 19 19 19 19 19 19 19 19 17 16 16 16 15 15 16 16 16 16 16 16 16 16 16 16 16 16 16 16 16 16 16 16 16 16 16 16 16 16 15 15 15 15 15
14 14 15 17 18 18 19 18 18 18 18 18 18 18 17 16 15 15 15 15 15 15 15 15 16 16 16 16 16 16 16 16 16 16 16 16 16 16 16 16 16 15 15 15 15 15 15 15 15
13 14 15 16 17 17 18 17 17 17 17 17 17 17 16 15 15 15 15 15 15 15 15 15 15 15 16 16 16 16 16 16 16 16 16 15 15 15 15 15 16 15 15 15 15 15 15 15 15
13 13 14 16 17 16 16 16 16 15 15 16 16 15 15 14 14 14 14 14 14 15 15 15 15 15 15 15 15 16 16 16 16 15 15 15 15 15 15 15 15 15 15 15 15 15 15 15 15
12 12 14 15 15 15 15 15 15 15 15 15 15 15 14 14 14 14 13 14 14 14 14 14 15 15 15 15 15 15 15 15 15 15 15 15 15 15 15 15 15 15 15 15 15 15 15 15 15
13 13 14 14 14 14 14 14 14 14 14 15 15 14 14 13 13 13 13 13 13 13 14 14 14 14 15 15 15 15 15 15 15 15 15 15 15 15 15 15 15 15 15 15 15 15 15 15 15
13 13 13 13 12 13 13 13 13 14 14 14 13 13 13 13 13 12 12 12 13 13 13 14 14 14 14 14 14 15 15 15 15 15 15 15 15 15 15 15 15 15 15 15 15 15 15 14 14
12 12 12 12 12 12 12 12 12 13 13 13 13 13 12 12 12 12 12 12 12 12 13 13 13 14 14 14 14 14 14 15 15 15 15 15 15 15 15 15 15 15 15 15 14 14 14 14 14
12 12 12 12 12 12 12 12 12 12 12 13 13 12 12 12 12 11 11 11 12 12 12 12 13 13 13 14 14 14 14 14 14 15 15 15 15 14 15 15 15 15 15 14 14 14 14 14 14
11 11 11 12 12 12 11 11 12 12 12 12 12 12 12 12 11 11 11 11 11 11 11 12 12 13 13 13 14 14 14 14 14 14 14 14 14 14 14 14 14 14 14 14 14 14 14 14 14
11 11 10 12 12 12 11 11 12 13 12 12 12 12 12 12 11 11 11 11 11 11 11 11 12 12 12 13 13 13 14 14 14 14 14 14 14 14 14 14 14 14 14 14 14 14 14 13 14
10 10 11 11 12 12 11 11 12 12 12 12 12 12 11 11 11 11 10 10 10 10 10 11 11 12 12 12 12 13 13 13 13 14 14 14 14 14 14 14 14 14 14 14 14 13 13 13 13
9 10 11 11 12 11 11 11 12 12 12 12 11 11 11 10 10 10 10 10 10 10 10 10 11 11 11 11 12 12 12 13 13 13 13 13 13 13 13 13 13 13 13 13 13 13 13 13 13
11 11 10 11 11 11 11 11 11 12 12 11 11 11 10 10 10 10 10 9 9 9 9 9 10 10 10 11 11 11 12 12 12 13 13 13 13 13 13 13 13 13 13 13 13 13 13 13 13
10 10 10 11 11 11 10 10 11 12 11 11 11 10 10 9 9 9 9 9 9 9 9 9 9 10 10 10 10 11 11 12 12 12 12 12 12 13 13 13 13 13 13 13 13 13 12 12 12
10 10 9 10 10 11 10 10 11 12 12 11 10 10 9 8 8 8 8 8 8 8 8 9 9 9 10 10 10 10 10 11 11 11 12 12 12 12 12 12 12 12 12 12 12 12 12 12 12
9 10 10 10 9 9 10 8 10 11 11 10 10 9 8 8 7 7 7 7 7 8 8 8 9 9 9 9 9 9 10 10 10 10 11 11 11 12 12 12 12 12 12 12 12 12 12 12 12
9 10 9 9 9 8 9 8 9 10 10 9 9 8 8 7 7 7 7 7 7 7 7 8 8 9 9 9 9 9 9 9 10 10 10 10 11 11 11 11 11 12 11 11 11 12 11 11 11
10 9 9 9 8 8 9 8 9 9 9 9 8 8 7 6 6 6 6 6 6 7 7 7 8 8 8 8 8 9 9 9 9 9 9 10 10 10 10 11 11 11 11 11 11 11 11 11 11
9 8 8 8 8 9 10 9 8 9 9 9 8 7 7 6 6 6 6 6 6 6 6 7 7 7 7 8 8 8 8 9 9 9 9 9 9 10 10 10 10 10 10 10 10 10 10 10 10
9 8 7 8 8 9 9 8 9 9 9 8 8 7 6 6 5 5 5 5 5 5 6 6 6 7 7 7 8 8 8 8 8 8 8 9 9 9 9 9 9 9 9 10 10 10 10 10 10
9 8 9 7 8 8 9 9 9 9 9 8 8 7 6 5 5 5 5 5 5 5 5 6 6 6 6 7 7 7 7 7 8 8 8 8 8 8 8 9 9 9 9 9 9 9 9 9 9
9 9 8 7 8 8 9 9 8 8 8 8 8 7 6 5 5 5 5 4 4 5 5 5 5 6 6 6 7 7 7 7 7 7 7 8 8 8 8 8 8 8 8 8 8 8 8 8 8
8 8 8 8 8 8 8 9 9 8 8 8 7 7 6 5 5 5 4 4 4 4 5 5 5 6 6 6 6 6 6 6 6 7 7 7 7 7 7 7 7 8 8 8 7 8 8 7 7
9 9 9 7 8 9 8 8 10 9 9 8 8 7 6 6 5 5 4 4 4 4 4 5 5 5 5 5 5 6 6 6 6 6 6 6 7 7 7 7 7 7 7 7 7 7 7 7 7
Wind_Speed
9 11 8 3 4 5 8 8 5 2 3 6 7 5 5 5 5 7 5 8 7 5 9 11 11 10 10 10 11 11 13 13 13 13 12 12 11 11 10 10 10 10 10 10 10 10 10 10 11
10 8 5 4 5 7 7 9 5 4 7 6 5 4 4 4 7 7 5 6 6 5 8 9 10 10 10 10 10 11 12 13 13 12 12 12 11 11 10 10 10 10 10 9 9 10 10 10 10
10 8 4 4 6 7 3 3 4 8 9 4 1 2 3 4 7 5 6 6 5 5 7 10 11 9 9 9 10 10 11 12 13 13 12 12 11 11 11 10 10 10 10 9 9 10 10 11 10
5 4 4 6 11 7 3 5 6 6 5 2 0 1 3 6 5 6 7 7 6 5 7 9 11 9 8 8 9 10 11 11 12 12 12 12 12 11 10 10 10 10 10 10 10 12 11 10 9
4 4 6 8 11 7 0 6 4 3 4 4 2 1 3 5 8 8 7 8 6 5 5 7 9 9 8 8 8 9 10 10 11 12 12 12 12 11 11 11 11 10 10 11 11 11 11 10 9
4 4 6 10 10 7 3 5 1 2 2 2 1 1 2 5 7 6 7 7 6 4 3 5 7 7 8 9 8 8 9 11 11 12 12 12 12 12 12 11 11 11 11 11 11 11 10 9 8
5 4 7 8 7 5 3 5 1 2 2 1 2 2 3 7 7 6 6 6 5 4 3 2 3 5 6 9 9 9 9 10 11 12 12 12 12 12 12 12 12 12 12 12 12 11 10 9 8
4 4 7 7 5 2 4 4 3 4 3 4 3 2 2 4 6 5 5 4 5 4 2 1 1 3 4 6 9 10 10 10 10 12 12 13 13 13 13 13 14 14 13 13 12 11 11 10 9
4 3 5 4 2 2 6 3 2 2 3 2 2 2 2 4 6 5 4 3 4 4 3 1 1 1 3 5 7 9 10 11 11 11 13 13 11 12 13 14 15 15 14 14 13 12 11 10 9
3 3 2 5 6 4 4 2 1 2 4 4 3 1 2 3 4 4 4 5 5 4 4 2 2 2 2 4 5 7 8 10 10 11 13 13 12 12 12 15 17 16 15 15 14 13 12 10 9
4 3 2 5 8 6 4 3 3 4 5 4 3 3 3 4 4 4 5 5 5 5 4 3 3 3 2 2 3 3 5 7 10 11 12 13 12 10 9 10 12 13 14 12 12 12 11 11 10
4 2 2 3 5 4 3 4 5 6 5 5 5 6 5 6 5 5 5 5 5 5 5 4 3 3 3 3 2 3 3 3 5 8 10 9 5 5 6 6 9 10 10 10 10 9 11 11 10
4 1 0 1 2 3 5 6 6 8 7 6 6 6 6 6 6 6 5 6 6 5 5 5 4 4 4 3 3 3 3 3 4 6 8 8 5 6 5 6 8 9 10 9 7 8 7 7 8
2 1 2 3 3 4 6 7 7 6 5 6 6 5 5 5 6 6 6 6 6 6 5 5 5 5 5 4 4 4 3 4 4 4 7 9 6 5 5 6 6 7 9 9 8 7 6 5 4
1 2 3 5 5 3 4 7 7 6 5 7 6 6 5 5 5 6 6 6 6 7 6 6 6 5 5 6 5 4 3 4 3 4 7 9 8 7 6 6 7 7 9 9 7 6 5 4 4
3 4 4 3 4 3 3 6 2 1 3 5 6 6 6 5 5 5 6 6 6 6 6 6 7 6 5 5 5 4 3 3 3 4 5 7 8 8 6 5 6 7 8 6 5 4 4 4 4
4 4 3 2 3 3 5 6 2 1 3 5 6 6 5 6 6 5 5 5 5 5 6 7 6 6 6 5 4 4 3 4 3 4 4 5 7 8 5 5 5 6 5 5 5 4 4 4 4
2 2 2 2 2 3 7 8 5 3 4 5 5 5 5 6 7 6 5 5 5 5 6 7 7 6 5 4 3 3 3 4 3 3 4 5 6 7 5 4 5 5 5 5 5 5 4 4 4
2 3 4 3 2 5 8 9 7 4 4 4 5 5 6 6 7 6 5 5 5 5 5 6 6 5 4 3 3 3 3 3 3 3 4 5 5 5 5 5 5 5 6 6 6 5 5 4 3
2 3 3 3 2 5 7 9 7 4 3 2 3 5 6 7 8 7 6 6 6 5 5 6 5 5 5 4 3 3 3 3 3 2 3 3 4 5 5 5 5 5 5 6 6 5 4 3 4
3 3 3 4 7 6 6 7 5 3 1 1 2 4 5 6 7 8 8 7 7 7 6 6 5 4 4 4 2 2 2 1 2 2 2 2 3 3 4 5 4 4 5 5 6 6 6 4 4
2 2 3 5 4 3 3 4 3 2 1 2 4 5 6 7 7 7 8 8 8 7 6 5 3 2 2 2 3 4 3 3 3 2 2 1 2 2 2 3 4 4 4 4 5 5 4 5 5
2 4 5 5 4 4 4 4 4 1 2 3 5 6 7 7 7 7 7 7 8 8 7 5 4 2 2 1 1 2 2 2 1 1 1 1 1 2 2 2 2 3 3 4 4 4 4 4 5
3 5 5 4 2 3 4 4 3 1 2 4 5 6 7 7 7 7 7 7 7 7 7 5 4 3 2 1 1 1 1 1 1 1 1 1 1 1 1 2 2 1 2 2 3 3 4 4 4
2 3 1 2 3 3 2 2 3 1 3 3 4 5 6 7 7 8 8 8 8 8 7 6 4 4 4 3 2 1 1 1 1 1 1 1 1 1 1 1 1 1 2 2 2 3 3 4 4
2 2 2 2 2 1 1 3 1 3 3 3 3 3 4 6 6 7 8 8 7 8 7 5 5 4 3 3 2 2 2 1 1 1 1 1 1 1 1 1 1 1 1 1 2 2 2 2 4
2 1 1 2 4 3 3 3 2 2 1 1 2 3 4 5 6 6 7 7 7 7 7 6 5 4 4 3 3 2 2 2 1 0 0 1 1 1 1 1 1 1 1 1 1 1 2 2 2
2 3 1 2 3 4 3 2 2 1 1 2 3 3 4 4 5 5 6 6 6 6 6 6 5 5 4 3 3 3 2 2 2 1 1 1 1 1 1 1 1 0 1 1 1 1 1 1 1
2 2 2 3 4 3 3 2 1 3 1 1 2 3 3 3 4 4 4 5 6 6 6 6 6 6 5 5 4 3 3 2 2 2 2 2 1 1 1 1 1 1 1 0 0 1 0 1 1
2 2 2 2 4 3 3 3 2 4 3 1 0 1 2 2 2 2 3 3 5 5 5 6 6 5 5 5 4 4 3 3 3 3 3 2 2 2 2 1 1 1 1 0 1 1 1 1 2
Wind_Direction
274 255 241 232 224 227 235 237 227 162 56 34 23 13 347 16 33 88 95 32 23 77 117 138 147 152 154 154 153 153 154 156 155 154 155 153 151 149 148 145 142 140 136 132 128 123 117 112 108
272 238 227 227 229 224 227 219 221 123 80 48 24 349 333 55 68 87 64 25 21 64 112 133 143 152 156 156 156 157 160 162 162 161 160 159 159 159 157 155 150 146 140 136 131 127 121 116 113
264 238 217 218 227 229 245 141 125 91 83 78 63 328 358 32 49 61 43 18 29 63 96 123 136 146 155 159 159 162 166 169 169 168 166 166 167 167 164 162 156 150 144 141 138 133 127 122 120
234 219 243 238 236 239 271 59 66 97 104 108 208 138 85 53 44 44 31 17 31 60 86 124 136 144 151 162 168 169 171 174 175 173 173 174 174 174 171 167 159 153 149 148 142 136 133 130 129
244 223 220 229 239 241 144 71 59 133 144 157 237 212 87 74 59 36 25 13 21 41 75 129 142 150 158 164 173 179 178 178 182 180 180 180 180 179 176 169 162 159 157 154 148 145 143 142 141
226 234 224 224 224 219 159 99 70 262 173 156 214 259 96 93 68 36 20 7 12 25 49 124 148 154 164 171 178 185 188 186 186 187 186 186 186 183 179 174 170 167 165 161 157 154 154 153 153
241 237 244 241 224 203 151 102 132 280 255 54 13 311 121 79 60 39 19 7 2 9 35 70 151 164 170 180 185 192 194 193 192 190 192 191 188 184 180 178 176 175 174 169 165 164 163 163 165
281 274 254 253 236 192 90 91 51 345 335 20 10 308 97 65 46 28 17 359 351 352 13 25 218 190 185 190 195 197 198 198 199 196 195 194 191 188 184 182 181 181 179 176 173 174 173 174 175
281 261 248 254 270 98 92 95 79 346 308 313 308 348 23 10 10 2 349 343 340 337 337 305 289 253 215 212 204 201 203 203 201 200 199 195 194 191 188 189 186 184 181 180 178 180 182 179 182
235 245 272 7 16 58 69 49 26 282 259 249 246 272 2 351 340 327 319 320 323 323 326 323 305 288 260 233 204 207 207 202 202 202 196 196 198 196 193 189 186 185 183 182 183 185 186 183 189
220 258 349 21 21 27 28 347 315 273 262 271 292 316 339 328 314 305 300 299 301 305 310 316 301 283 269 259 226 212 212 203 205 210 200 195 195 192 184 172 178 181 183 184 186 186 192 199 198
211 272 339 20 11 359 335 315 297 271 277 326 336 333 322 307 300 296 297 295 289 288 292 293 292 277 266 255 249 231 216 209 205 210 204 194 183 180 172 168 175 180 185 187 183 189 201 208 204
209 198 320 346 302 286 280 271 275 274 292 306 302 299 296 295 297 298 298 296 291 283 284 281 275 270 262 250 242 237 223 218 218 210 206 196 184 186 176 174 179 184 185 185 189 194 196 204 207
163 184 248 255 258 263 268 267 257 258 274 274 269 268 273 280 289 295 293 293 292 287 282 281 276 263 258 248 236 235 235 224 225 211 208 204 192 186 182 179 179 187 185 186 192 193 191 200 198
189 213 229 223 219 223 273 264 236 247 262 270 274 275 271 270 278 283 287 288 288 291 288 277 273 262 256 253 245 239 235 231 219 213 211 207 198 188 186 185 184 185 186 186 191 196 188 191 194
210 217 216 190 198 190 236 264 218 245 267 282 287 287 283 275 274 280 283 280 281 284 285 280 277 271 255 249 245 240 236 233 225 219 217 217 210 197 189 192 190 185 182 181 183 186 183 192 194
198 226 218 184 192 208 239 269 275 301 288 288 292 294 297 299 294 289 289 283 282 279 280 277 268 265 261 255 245 240 236 227 225 218 216 221 219 206 190 192 195 184 177 179 183 184 182 191 195
209 245 249 234 199 266 262 268 276 263 266 285 299 303 307 303 307 308 304 302 294 282 275 274 264 254 250 247 244 242 236 232 222 215 212 217 216 207 195 191 196 182 178 179 180 187 186 186 189
280 271 273 286 287 279 266 271 274 265 266 289 304 312 309 304 309 317 327 325 314 299 286 276 263 254 241 229 224 229 229 228 223 218 217 215 217 208 196 198 192 183 184 184 184 182 185 192 173
297 278 284 301 296 288 279 276 266 245 252 284 306 315 323 326 329 333 334 336 328 316 309 289 270 255 243 228 220 221 224 223 217 215 223 217 212 210 204 198 193 186 186 186 187 174 181 192 178
308 300 317 314 309 268 273 277 238 204 216 331 348 350 348 338 338 338 341 342 338 330 316 304 288 272 256 239 218 214 220 239 242 219 209 216 209 205 201 193 189 184 184 188 189 182 180 190 196
310 341 311 300 304 286 261 286 261 216 247 349 6 359 351 345 342 341 344 344 340 332 327 318 316 299 282 253 220 213 216 223 227 216 208 206 182 174 169 164 171 181 181 187 191 182 179 182 197
312 316 292 280 281 287 243 253 271 197 268 346 359 356 353 348 344 344 347 345 345 344 345 351 359 355 345 305 209 202 212 218 207 165 143 178 137 130 121 122 155 177 185 191 190 183 180 190 201
288 289 271 245 253 263 225 221 283 205 324 347 357 2 1 355 350 353 356 355 353 353 353 356 4 12 16 33 45 124 166 182 162 137 149 154 126 109 114 123 137 161 177 194 195 190 191 199 207
305 319 299 221 218 244 154 202 258 63 35 12 355 2 5 3 360 360 358 355 355 355 355 355 2 15 16 26 31 26 69 99 127 154 140 121 128 117 124 124 155 185 192 193 192 197 203 208 209
278 305 341 306 307 311 210 232 224 98 81 58 28 11 10 6 2 1 357 355 354 354 354 358 0 11 17 25 32 37 37 62 75 76 113 134 136 119 118 122 132 179 191 198 190 196 214 221 219
302 297 357 287 279 264 234 202 178 127 117 73 15 12 13 9 2 0 359 357 356 355 358 5 11 15 23 26 31 43 56 67 77 104 142 134 114 99 112 130 149 194 207 199 178 196 214 223 225
273 316 291 266 297 291 257 216 220 214 288 16 9 6 8 7 4 4 2 358 359 2 3 13 22 23 28 30 30 35 45 46 54 65 76 69 57 79 78 78 121 172 204 209 203 202 223 225 237
199 239 262 270 272 288 300 287 124 151 137 25 0 14 15 7 3 3 4 358 359 3 8 18 22 23 28 33 34 40 47 48 50 55 52 48 35 44 56 40 56 52 24 337 242 252 229 239 262
220 252 262 284 294 268 273 264 129 127 129 139 19 28 11 20 9 354 359 5 4 4 13 21 21 19 21 28 33 36 38 44 46 39 32 39 38 34 25 26 41 22 11 329 235 263 262 256 261
Height
1492 1495 1499 1502 1505 1504 1498 1485 1476 1478 1479 1482 1484 1485 1487 1489 1494 1506 1507 1504 1504 1504 1503 1504 1506 1508 1510 1512 1514 1516 1518 1520 1522 1524 1526 1527 1528 1530 1531 1532 1533 1534 1535 1536 1536 1537 1538 1539 1539
1492 1496 1500 1501 1502 1503 1492 1480 1477 1478 1482 1485 1488 1489 1490 1493 1497 1501 1503 1504 1504 1504 1504 1505 1506 1508 1511 1512 1514 1516 1518 1521 1522 1524 1526 1527 1529 1530 1531 1532 1533 1534 1536 1537 1537 1538 1539 1540 1541
1492 1496 1500 1498 1496 1493 1483 1475 1476 1479 1484 1488 1491 1492 1494 1497 1499 1502 1503 1503 1504 1504 1504 1505 1507 1508 1510 1512 1514 1516 1518 1520 1522 1524 1526 1527 1529 1530 1531 1532 1534 1535 1536 1537 1538 1539 1540 1541 1542
1494 1497 1497 1496 1491 1482 1478 1477 1478 1482 1487 1490 1493 1494 1496 1499 1501 1502 1502 1503 1504 1504 1504 1505 1507 1508 1510 1512 1514 1516 1518 1520 1522 1524 1525 1527 1528 1530 1531 1532 1534 1535 1536 1537 1538 1539 1541 1542 1542
1494 1495 1495 1493 1487 1480 1477 1479 1482 1484 1488 1491 1493 1495 1497 1500 1500 1501 1502 1503 1504 1504 1504 1505 1506 1508 1510 1511 1513 1515 1517 1519 1521 1523 1525 1526 1528 1529 1531 1532 1533 1535 1536 1537 1538 1540 1541 1542 1543
1494 1491 1493 1491 1483 1478 1478 1481 1484 1486 1489 1491 1494 1495 1498 1500 1500 1501 1502 1502 1503 1503 1504 1505 1506 1507 1509 1511 1512 1514 1516 1518 1520 1522 1524 1525 1527 1528 1530 1531 1533 1534 1536 1537 1538 1540 1541 1542 1543
1492 1490 1488 1482 1480 1479 1479 1483 1486 1488 1490 1492 1494 1495 1498 1499 1499 1500 1501 1501 1502 1503 1503 1504 1505 1506 1508 1509 1511 1513 1515 1517 1519 1520 1522 1524 1526 1527 1529 1530 1532 1533 1535 1536 1538 1539 1540 1541 1542
1490 1489 1484 1481 1479 1480 1481 1484 1488 1491 1492 1494 1495 1496 1498 1499 1499 1499 1500 1500 1501 1502 1502 1503 1504 1505 1506 1508 1509 1511 1513 1515 1517 1519 1521 1522 1524 1526 1527 1529 1531 1532 1534 1535 1537 1538 1540 1541 1542
1490 1492 1486 1480 1479 1482 1484 1487 1491 1492 1494 1495 1496 1497 1498 1497 1497 1498 1499 1499 1500 1500 1501 1501 1502 1503 1504 1506 1507 1509 1511 1513 1515 1517 1519 1520 1522 1524 1526 1527 1529 1531 1533 1534 1536 1537 1539 1540 1541
1490 1491 1485 1483 1482 1484 1486 1489 1492 1494 1494 1494 1496 1496 1496 1497 1497 1497 1497 1497 1498 1498 1499 1499 1500 1501 1502 1504 1505 1506 1508 1510 1512 1514 1516 1518 1520 1522 1523 1525 1527 1529 1531 1532 1534 1536 1537 1538 1539
1488 1487 1486 1486 1486 1487 1490 1492 1493 1494 1494 1494 1495 1495 1495 1495 1496 1496 1496 1496 1496 1496 1496 1497 1498 1499 1500 1501 1502 1504 1505 1507 1509 1512 1514 1516 1518 1520 1521 1523 1525 1527 1529 1530 1532 1533 1535 1536 1538
1487 1487 1487 1489 1490 1491 1492 1493 1494 1493 1493 1493 1493 1493 1494 1494 1494 1494 1494 1493 1493 1493 1493 1494 1495 1496 1497 1498 1499 1501 1502 1504 1506 1509 1511 1513 1515 1517 1518 1520 1522 1524 1526 1527 1529 1531 1533 1534 1536
1486 1488 1490 1491 1492 1492 1493 1494 1494 1492 1492 1492 1492 1492 1492 1492 1492 1491 1491 1490 1490 1490 1490 1491 1491 1492 1493 1494 1496 1497 1499 1501 1503 1505 1508 1510 1512 1514 1515 1517 1519 1521 1523 1525 1526 1529 1530 1532 1534
1487 1489 1490 1491 1491 1492 1492 1492 1492 1489 1490 1490 1490 1490 1490 1489 1489 1488 1488 1487 1487 1486 1486 1487 1487 1488 1489 1490 1492 1493 1495 1497 1499 1501 1503 1506 1508 1510 1512 1514 1516 1518 1520 1522 1524 1526 1528 1530 1532
1488 1490 1490 1489 1490 1490 1492 1490 1488 1487 1488 1488 1487 1487 1487 1486 1486 1485 1484 1483 1483 1483 1482 1482 1483 1484 1485 1486 1487 1489 1491 1493 1495 1497 1499 1502 1504 1506 1508 1510 1512 1514 1517 1519 1521 1523 1525 1527 1528
1489 1490 1491 1487 1487 1489 1493 1490 1485 1485 1485 1485 1485 1484 1484 1483 1482 1481 1480 1479 1479 1478 1478 1478 1479 1479 1480 1481 1483 1484 1486 1488 1490 1492 1494 1497 1500 1502 1504 1506 1509 1511 1513 1515 1517 1520 1522 1523 1525
1489 1490 1487 1488 1486 1487 1489 1487 1484 1483 1483 1483 1483 1482 1481 1480 1479 1477 1476 1475 1474 1473 1473 1473 1474 1474 1475 1477 1478 1479 1481 1483 1485 1487 1489 1492 1495 1497 1500 1502 1505 1507 1509 1511 1514 1516 1518 1519 1521
1490 1488 1486 1487 1485 1486 1487 1484 1482 1481 1481 1481 1480 1479 1478 1477 1475 1474 1473 1471 1470 1469 1468 1468 1468 1469 1470 1472 1473 1474 1476 1478 1480 1482 1484 1487 1490 1492 1495 1497 1500 1503 1505 1507 1509 1511 1514 1515 1517
1485 1486 1487 1486 1485 1486 1484 1482 1479 1478 1478 1478 1477 1477 1476 1474 1472 1471 1469 1468 1466 1465 1464 1463 1463 1464 1465 1466 1468 1470 1471 1473 1475 1477 1480 1482 1484 1487 1490 1492 1495 1498 1500 1502 1505 1507 1509 1511 1513
1486 1488 1487 1485 1484 1485 1483 1480 1475 1475 1475 1476 1475 1475 1473 1472 1470 1468 1466 1464 1462 1460 1459 1459 1459 1459 1461 1462 1464 1466 1467 1469 1471 1473 1474 1477 1479 1482 1485 1487 1490 1493 1495 1498 1500 1502 1504 1506 1508
1487 1488 1488 1488 1486 1482 1483 1479 1473 1471 1472 1473 1473 1473 1472 1471 1468 1466 1464 1461 1459 1457 1456 1455 1454 1455 1456 1458 1460 1462 1463 1465 1466 1468 1470 1472 1475 1477 1480 1482 1485 1487 1490 1492 1495 1497 1499 1501 1504
1489 1487 1487 1488 1490 1488 1485 1487 1475 1471 1471 1472 1472 1472 1471 1469 1466 1464 1462 1459 1457 1454 1452 1451 1450 1451 1452 1454 1456 1458 1459 1461 1462 1464 1466 1468 1470 1473 1475 1477 1480 1482 1485 1487 1490 1491 1494 1496 1498
1489 1487 1487 1487 1488 1490 1483 1488 1479 1471 1472 1472 1472 1471 1470 1468 1465 1463 1460 1458 1455 1453 1450 1449 1448 1448 1450 1451 1453 1454 1456 1458 1459 1461 1462 1464 1466 1468 1471 1473 1475 1477 1480 1482 1484 1486 1488 1491 1493
1488 1488 1485 1485 1489 1491 1481 1485 1479 1473 1472 1472 1471 1470 1469 1467 1464 1462 1459 1456 1454 1451 1449 1447 1447 1447 1448 1449 1450 1452 1453 1455 1456 1457 1459 1460 1462 1464 1466 1469 1471 1473 1475 1477 1479 1481 1483 1485 1487
1489 1492 1492 1491 1490 1485 1475 1480 1479 1472 1471 1472 1471 1470 1469 1467 1464 1461 1458 1455 1452 1450 1448 1447 1446 1446 1446 1447 1448 1449 1450 1452 1453 1454 1456 1457 1459 1460 1462 1464 1466 1469 1471 1473 1475 1476 1478 1480 1482
1490 1492 1497 1495 1488 1482 1478 1480 1475 1471 1471 1471 1471 1470 1468 1466 1464 1461 1459 1456 1452 1450 1447 1446 1445 1444 1445 1445 1446 1447 1448 1449 1450 1452 1453 1455 1456 1457 1458 1460 1462 1464 1466 1468 1470 1471 1473 1474 1476
1490 1491 1491 1495 1489 1487 1478 1473 1471 1470 1470 1470 1470 1469 1468 1466 1464 1462 1459 1456 1453 1450 1447 1445 1444 1443 1443 1444 1444 1445 1447 1448 1449 1450 1451 1452 1453 1454 1456 1457 1459 1460 1462 1464 1465 1466 1468 1469 1470
1491 1490 1492 1494 1489 1484 1474 1471 1474 1472 1470 1469 1469 1469 1468 1466 1464 1462 1459 1456 1453 1450 1448 1446 1444 1443 1443 1443 1443 1444 1445 1446 1447 1448 1449 1450 1451 1452 1453 1454 1455 1457 1458 1459 1461 1462 1463 1464 1465
1491 1491 1490 1489 1487 1488 1482 1478 1468 1468 1468 1469 1469 1468 1467 1466 1464 1462 1459 1456 1453 1451 1448 1446 1445 1444 1443 1443 1443 1443 1444 1445 1445 1446 1446 1447 1448 1449 1450 1451 1452 1454 1454 1455 1456 1457 1458 1459 1460
1486 1487 1488 1493 1488 1482 1484 1481 1466 1466 1467 1468 1468 1468 1467 1465 1464 1462 1460 1457 1454 1451 1449 1447 1446 1444 1444 1443 1443 1443 1443 1444 1444 1444 1445 1446 1447 1447 1448 1449 1449 1450 1451 1452 1453 1453 1453 1454 1455